Location: Frizzleburg
(41.0764°N, 80.4548°W)
Time: 15:57:40
(UTC+00:00)

COSMOS 2455 - Pass Details

Date: 17 November 2019
Orbit: 902 x 908 km, 67.1° (Epoch: 06 December)

Event Time Altitude Azimuth Distance (km) Brightness Sun altitude
Exits shadow 09:50:04 19° 350° (N) 2,010 4.5 -26.6°
Maximum altitude 09:54:02 44° 54° (NE) 1,237 3.8 -25.8°
Drops below altitude 10° 09:59:44 10° 125° (SE) 2,582 6.0 -24.8°
Sets 10:02:21 0° 132° (SE) 3,518 6.7 -24.3°
